Location: *
(38.9555°S, 57.3572°E)
Time: 01:42:17
(UTC+00:00)

SL-16 R/B - Pass Details

Date: 15 July 2020
Orbit: 839 x 850 km, 71.0° (Epoch: 06 August)

Event Time Altitude Azimuth Distance (km) Brightness Sun altitude
Rises 15:02:26 0° 200° (SSW) 3,428 5.5 -21.9°
Reaches altitude 10° 15:04:56 10° 196° (SSW) 2,487 4.7 -22.4°
Maximum altitude 15:10:36 61° 115° (ESE) 957 2.1 -23.5°
Enters shadow 15:11:34 53° 72° (ENE) 1,035 2.3 -23.6°
